Погода в Маунт-Айза

Австралия     20°43′52″S   139°28′55″E
темп.,
°C
ветер,
м/с
пор.,
м/с
влажн.,
%
обл.,
%
осадки,
мм/ч
давл.,
гПа
погр.,
м
21 апреля, ср
ср2101:00+25юв473019 0.0 1013122
04:00+24ююв713365 0.0 1012299
07:00+22юв714395 0.0 1013295
10:00+28вюв77430 0.0 1014775
13:00+32в213234 0.0 10112863
16:00+32ююз322759 0.0 10102497
19:00+29всв2437100 0.0 1012224
22:00+28юв71030100 0.0 1014820
22 апреля, чт
чт2201:00+26ююв81322100 0.0 1013462
04:00+23ююв9152192 0.0 1013446
07:00+21ююв10171911 0.0 1015419
10:00+26ююв1113151 0.0 1016840
13:00+29ююв99120 0.0 10141695
16:00+29ююв88120 0.0 10112105
19:00+25ююв611164 0.0 1014236
22:00+22ююв714225 0.0 1016365
23 апреля, пт
пт2301:00+21ююв7132684 0.0 1016287
04:00+19ююв6143042 0.0 1015312
07:00+17ююв714336 0.0 1017278
10:00+23юв10102391 0.0 1018982
13:00+27юв771799 0.0 10151965
16:00+28юв771548 0.0 10122242
19:00+24ююв6102017 0.0 1015166
22:00+22ююв713220 0.0 1017273
24 апреля, сб
сб2401:00+20ююв714255 0.0 1017270
04:00+19ююв815280 0.0 1016297
07:00+18юв816315 0.0 1017297
10:00+24вюв10122115 0.0 1018889
13:00+29вюв99206 0.0 10162115
16:00+29юв992038 0.0 10132475
19:00+25юв610245 0.0 1015187
22:00+22юв612285 0.0 1017221
25 апреля, вс
вс2501:00+21юв7142835 0.0 1016266
04:00+20юв816275 0.0 1016319
07:00+19юв816265 0.0 1017303
10:00+25вюв911215 0.0 1018908
13:00+30вюв98210 0.0 10151760
16:00+30вюв87220 0.0 10132384
19:00+26юв510282 0.0 1015151
22:00+23юв714255 0.0 1017265